Showing default

BOTSAT-1, 63216

Orbit data source: Space-Track

BOTSAT-1, 63216 is a payload satellite in SSO that was launched on Sat, 15 Mar 2025 UTC via an FALCON 9 launch vehicle from the Air Force Western Test Range (AFWTR). Payload-class satellites include a variety of spacecraft equipped with specific instruments for various scientific and technological missions. These include communications satellites like Starlink; space stations such as the ISS; scientific satellites like the Hubble; Earth observation satellites from companies like Planet Labs, Umbra, and HawkEye 360; GPS; miniature CubeSats for education and research; and military/defense satellites.

Loading next visibility...
Identifier
63216, 2025-052G
Orbit
SSO
Last TLE update
1 day ago
Origin
Unknown
Manufacturer
Endurosat
Mission
Operational Amateur Technology
Bus & Motor
CUBESAT 3U, Unknown motor
Mass
5 kg wet, 5 kg dry
Launch date (UTC)
2025-03-15 (2 months ago)
Launch vehicle
FALCON 9
Launch site
Air Force Western Test Range (AFWTR)
Object type
Payload
Rocket body
Debris
Shape & HBR
Box + 4 Pan, 0.1 m
Radar Cross Section
0.035 m², Small (<0.1 m²)

Expand to show TLE details & history

TLE from 1 day ago
0 BOTSAT-1
1 63216U 25052G   25139.49940633  .00004862  00000-0  23582-3 0  9993
2 63216  97.4302  33.7155 0004920  78.5826 281.5961 15.18958351 10043
Epoch: 2025-05-19T11:59Z
TLE epoch observation values (Epoch: 2025-05-19T11:59:08.706Z)
Latitude
-0.00004°
Longitude
-23.48191°
Altitude
511.396 km
Speed
7.609 km/s
True Right ascension
02h 14m 51s
True Declination
0° 00' 00"
Sunlit
Object was in daylight at epoch
Visualization orbit readout
Latitude
8.88955°
Longitude
158.87705°
Altitude
511.712 km
Speed
7.608 km/s
Apparent Right ascension
14h 16m 28s
Apparent Declination
-14° 26' 36"
Sunlit
Object is in full shadow
Visualization observer readout
Local Sidereal Time
02:05:37
Azimuth
353.901° N
Elevation
-64.416°
Doppler factor
1
Orbital elements
Apogee altitude
509.343 km
Perigee altitude
502.569 km
Semi-major axis
6,884.093 km
Eccentricity
0.00049
Inclination
97.4302°
RAAN
33.7155°
Arg. of periapsis
78.5826°
True anomaly
Unknown
Mean anomaly
281.5961°
Eccentric anomaly
Unknown
Mean motion
3.79991 °/min
Orbital period
94.74 mins
BSTAR
0.00023582
Loading maneuver chart data...
Loading SW <> Apogee altitude chart data...
Loading historical data...
Loading historical data...
Loading historical data...
Loading historical data...
Loading historical data...
Loading historical data...
Loading historical data...

BOTSAT-1 Visibility forecast

Observer location: undefined°, undefined°

Span
Click to sort rows by Start time (UTC) header in descending order
Start Az.
Max El. time (UTC)
Max El. Az.
Max El.
End time (UTC)
End Az.
5 mins2025-05-21 05:40:38.983Z24.184° NE2025-05-21 05:42:38.983Z134.317° SE42.406°2025-05-21 05:45:38.983Z184.651° SSW
5 mins2025-05-21 16:18:38.983Z117.743° SE2025-05-21 16:20:38.983Z72.869° E24.116°2025-05-21 16:23:38.983Z14.52° NNE
|